FW6618 Weather Reports


Display with metric or nautical units.
time (UTC)temp
F
wind
direction
speed
MPH
gust
MPH
rain 1hr
in
rain 24hr
in
rain mn
in
humidity
%
barometer
mb
20260510223522 64 308 2.0 5.0 0.00 0.00 0.00 40 1015.1
20260510223033 63 101 1.0 5.0 0.00 0.00 0.00 41 1014.9
20260510222522 64 74 1.0 10.0 0.00 0.00 0.00 42 1014.9
20260510222021 64 57 3.0 10.0 0.00 0.00 0.00 38 1014.7
20260510221540 64 207 1.0 6.0 0.00 0.00 0.00 39 1014.7
20260510221021 64 333 2.0 6.0 0.00 0.00 0.00 39 1014.6
20260510220519 64 352 1.0 5.0 0.00 0.00 0.00 40 1014.7
20260510220035 64 47 1.0 8.0 0.00 0.00 0.00 42 1014.7
20260510215518 64 351 1.0 8.0 0.00 0.00 0.00 47 1014.5
20260510215018 64 271 2.0 13.0 0.00 0.00 0.00 44 1014.4
20260510214537 64 56 3.0 13.0 0.00 0.00 0.00 45 1014.3
20260510214016 64 131 4.0 13.0 0.00 0.00 0.00 47 1014.3
20260510213524 64 103 4.0 12.0 0.00 0.00 0.00 48 1014.3
20260510213040 64 169 3.0 10.0 0.00 0.00 0.00 49 1014.1
20260510212518 64 132 4.0 10.0 0.00 0.00 0.00 48 1014.2
20260510212022 64 201 3.0 8.0 0.00 0.00 0.00 50 1014.2
20260510211539 64 134 5.0 12.0 0.00 0.00 0.00 49 1014.3
20260510211020 65 155 4.0 12.0 0.00 0.00 0.00 50 1014.0
20260510210519 65 132 4.0 12.0 0.00 0.00 0.00 51 1014.0
20260510210037 65 318 3.0 8.0 0.00 0.00 0.00 50 1013.9
20260510205520 64 169 4.0 9.0 0.00 0.01 0.00 51 1013.8
20260510205020 65 181 4.0 10.0 0.00 0.01 0.00 50 1013.6
20260510204536 65 89 5.0 12.0 0.00 0.01 0.00 51 1013.9
20260510204019 65 176 3.0 12.0 0.00 0.01 0.00 54 1013.8
20260510203522 65 188 4.0 12.0 0.00 0.01 0.00 54 1013.7
20260510203032 65 195 4.0 12.0 0.00 0.01 0.00 54 1013.6
20260510202522 65 216 3.0 14.0 0.00 0.01 0.00 52 1013.7
20260510202021 64 196 4.0 14.0 0.00 0.01 0.00 54 1013.5
20260510201534 65 174 3.0 11.0 0.00 0.01 0.00 54 1013.6
20260510201020 65 94 4.0 11.0 0.00 0.01 0.00 57 1013.5
20260510200519 65 187 2.0 7.0 0.00 0.01 0.00 59 1013.5
20260510200033 64 288 3.0 10.0 0.00 0.01 0.00 59 1013.4
20260510195516 63 210 2.0 10.0 0.00 0.04 0.00 59 1013.5
20260510195021 64 191 3.0 12.0 0.00 0.04 0.00 58 1013.6
20260510194552 64 264 4.0 12.0 0.00 0.04 0.00 61 1013.7
20260510194019 63 146 5.0 12.0 0.00 0.04 0.00 60 1013.5
20260510193519 64 199 3.0 12.0 0.00 0.04 0.00 60 1013.5
20260510193036 64 226 4.0 12.0 0.00 0.04 0.00 60 1013.7
20260510192519 64 205 4.0 13.0 0.00 0.04 0.00 59 1013.7
20260510192019 64 225 3.0 13.0 0.00 0.04 0.00 59 1013.8
20260510191533 64 205 4.0 13.0 0.00 0.04 0.00 59 1013.7
20260510191018 64 245 2.0 6.0 0.00 0.04 0.00 60 1013.7
20260510190518 63 138 2.0 10.0 0.00 0.04 0.00 64 1013.7
20260510190035 62 290 4.0 10.0 0.00 0.04 0.00 62 1013.9
20260510185517 62 205 4.0 10.0 0.00 0.08 0.00 63 1014.1
20260510185019 62 217 4.0 10.0 0.00 0.08 0.00 65 1014.2
20260510184533 61 164 2.0 7.0 0.00 0.08 0.00 71 1014.2
20260510184015 61 117 3.0 10.0 0.00 0.08 0.00 70 1014.3
20260510183522 61 189 4.0 10.0 0.00 0.08 0.00 70 1014.3
20260510183036 61 147 3.0 10.0 0.00 0.08 0.00 71 1014.2
20260510182519 62 147 3.0 8.0 0.00 0.08 0.00 70 1014.3
20260510182019 62 358 3.0 8.0 0.00 0.08 0.00 74 1014.2
20260510181537 61 139 2.0 7.0 0.00 0.08 0.00 74 1014.2
20260510181019 60 199 1.0 11.0 0.00 0.08 0.00 76 1014.2
20260510180519 59 247 3.0 11.0 0.00 0.08 0.00 77 1014.3
20260510180038 59 149 4.0 11.0 0.00 0.08 0.00 78 1014.5
20260510175519 59 205 1.0 6.0 0.00 0.15 0.00 79 1014.4
20260510175019 59 273 3.0 6.0 0.00 0.15 0.00 78 1014.4
20260510174535 58 200 1.0 7.0 0.00 0.15 0.00 84 1014.1
20260510174021 57 297 2.0 7.0 0.00 0.15 0.00 80 1014.1
20260510173522 57 206 2.0 10.0 0.00 0.15 0.00 79 1014.3
20260510173032 57 148 1.0 10.0 0.00 0.15 0.00 81 1014.3
20260510172519 57 195 2.0 7.0 0.00 0.15 0.00 81 1014.3
20260510172019 57 40 1.0 6.0 0.00 0.15 0.00 81 1014.1
20260510171537 57 150 2.0 6.0 0.00 0.15 0.00 81 1014.4
20260510171019 57 278 2.0 7.0 0.00 0.15 0.00 81 1014.2
20260510170519 57 200 3.0 7.0 0.00 0.15 0.00 81 1014.2
20260510170041 57 252 2.0 7.0 0.00 0.15 0.00 81 1014.2
20260510165518 57 323 3.0 7.0 0.00 0.20 0.00 80 1014.3
20260510165016 57 25 3.0 6.0 0.00 0.20 0.00 80 1014.1
20260510164539 57 161 3.0 6.0 0.00 0.20 0.00 81 1014.2
20260510164018 57 322 2.0 8.0 0.00 0.20 0.00 82 1014.3
20260510163519 57 299 3.0 8.0 0.00 0.20 0.00 82 1014.2
20260510163048 57 205 1.0 5.0 0.00 0.20 0.00 82 1014.2
20260510162517 57 181 2.0 5.0 0.00 0.20 0.00 81 1014.2
20260510162020 57 47 1.0 6.0 0.00 0.20 0.00 80 1014.1
20260510161536 57 113 2.0 7.0 0.00 0.20 0.00 80 1013.9
20260510161019 57 165 3.0 7.0 0.00 0.20 0.00 80 1014.2
20260510160519 57 125 2.0 7.0 0.00 0.20 0.00 81 1014.1
20260510160050 57 166 2.0 5.0 0.00 0.20 0.00 81 1014.1
20260510155529 57 187 1.0 3.0 0.00 0.25 0.00 82 1014.0
20260510155018 57 0 0.0 4.0 0.00 0.25 0.00 83 1014.1
20260510154539 56 160 1.0 4.0 0.00 0.25 0.00 81 1014.0
20260510154017 57 210 1.0 8.0 0.00 0.25 0.00 80 1014.0
20260510153523 57 158 1.0 8.0 0.00 0.25 0.00 80 1014.1
20260510153044 57 359 3.0 9.0 0.00 0.25 0.00 79 1014.0
20260510152520 57 244 0.0 9.0 0.00 0.25 0.00 79 1013.9
20260510152017 57 219 2.0 7.0 0.00 0.25 0.00 78 1013.8
20260510151537 58 248 1.0 4.0 0.00 0.25 0.00 78 1013.7
20260510151020 58 214 2.0 8.0 0.00 0.25 0.00 78 1013.7
20260510150517 58 148 4.0 9.0 0.00 0.25 0.00 77 1013.5
20260510150039 59 188 3.0 9.0 0.00 0.25 0.00 76 1013.5
20260510145521 59 212 2.0 8.0 0.00 0.29 0.00 77 1013.2
20260510145021 59 190 2.0 8.0 0.00 0.29 0.00 77 1013.2
20260510144541 59 191 2.0 9.0 0.00 0.29 0.00 77 1013.1
20260510144021 59 360 3.0 9.0 0.00 0.29 0.00 74 1013.0
20260510143522 59 148 3.0 9.0 0.00 0.29 0.00 74 1013.1
20260510143046 59 0 1.0 6.0 0.00 0.29 0.00 77 1012.9
20260510142517 59 286 3.0 7.0 0.00 0.29 0.00 75 1012.8
20260510142017 60 272 3.0 7.0 0.00 0.29 0.00 74 1012.8
20260510141538 60 3 3.0 7.0 0.00 0.29 0.00 75 1012.8
20260510141018 60 191 1.0 3.0 0.00 0.29 0.00 79 1012.6
20260510140518 60 348 1.0 3.0 0.00 0.29 0.00 77 1012.4
20260510140037 60 233 1.0 7.0 0.00 0.29 0.00 78 1012.5
20260510135521 60 324 2.0 7.0 0.00 0.35 0.00 79 1012.5
20260510135018 60 316 0.0 4.0 0.00 0.35 0.00 81 1012.5
20260510134536 60 77 2.0 4.0 0.00 0.35 0.00 79 1012.4
20260510134017 59 193 1.0 3.0 0.00 0.35 0.00 81 1012.4
20260510133517 59 300 0.0 3.0 0.00 0.35 0.00 80 1012.4
20260510133038 59 192 1.0 3.0 0.00 0.35 0.00 79 1012.4
20260510132518 59 209 2.0 6.0 0.00 0.35 0.00 80 1012.5
20260510132019 59 214 2.0 6.0 0.00 0.35 0.00 82 1012.6
20260510131533 58 218 2.0 6.0 0.00 0.35 0.00 80 1012.6
20260510131018 58 77 2.0 7.0 0.00 0.35 0.00 83 1012.6
20260510130517 58 283 1.0 7.0 0.00 0.35 0.00 84 1012.5
20260510130032 57 189 1.0 7.0 0.00 0.35 0.00 83 1012.7
20260510125515 57 167 2.0 7.0 0.00 0.36 0.00 83 1012.8
20260510125017 57 160 3.0 7.0 0.00 0.36 0.00 85 1012.6
20260510124533 56 255 1.0 6.0 0.00 0.36 0.00 86 1012.6
20260510124016 56 195 1.0 6.0 0.00 0.36 0.00 86 1012.7
20260510123518 56 149 1.0 5.0 0.00 0.36 0.00 87 1012.5
20260510123037 55 201 2.0 10.0 0.00 0.36 0.00 88 1012.4
20260510122516 55 338 3.0 10.0 0.00 0.36 0.00 89 1012.4
20260510122018 54 316 1.0 4.0 0.00 0.36 0.00 90 1012.2
20260510121536 54 335 1.0 4.0 0.00 0.36 0.00 91 1012.4
20260510121020 54 56 1.0 4.0 0.00 0.36 0.00 93 1012.5
20260510120521 53 257 1.0 5.0 0.00 0.36 0.00 92 1012.7
20260510120036 53 254 1.0 5.0 0.00 0.36 0.00 94 1012.6
20260510115523 53 236 1.0 5.0 0.00 0.36 0.00 94 1012.5
20260510115018 52 348 0.0 5.0 0.00 0.36 0.00 95 1012.5
20260510114534 52 233 1.0 5.0 0.00 0.36 0.00 96 1012.4
20260510114016 52 139 1.0 6.0 0.00 0.36 0.00 96 1012.4
20260510113517 51 220 2.0 6.0 0.00 0.36 0.00 96 1012.5
20260510113037 51 141 0.0 2.0 0.00 0.36 0.00 96 1012.3
20260510112521 50 200 0.0 2.0 0.00 0.36 0.00 96 1012.3
20260510112020 50 342 0.0 1.0 0.00 0.36 0.00 96 1012.4
20260510111544 49 344 0.0 1.0 0.00 0.36 0.00 96 1012.4
20260510111024 49 342 0.0 1.0 0.00 0.36 0.00 96 1012.2
20260510110521 49 75 0.0 1.0 0.00 0.36 0.00 96 1012.3
20260510110037 49 0 0.0 1.0 0.00 0.36 0.00 96 1012.1
20260510105520 48 76 0.0 1.0 0.00 0.36 0.00 96 1012.1
20260510105020 48 76 0.0 2.0 0.00 0.36 0.00 96 1012.0
20260510104545 48 0 0.0 2.0 0.00 0.36 0.00 96 1011.8
20260510104021 48 0 0.0 5.0 0.00 0.36 0.00 96 1012.0
20260510103521 48 0 1.0 5.0 0.00 0.36 0.00 96 1011.8
20260510103034 48 341 1.0 3.0 0.00 0.36 0.00 96 1011.7
20260510102519 47 0 0.0 0.0 0.00 0.36 0.00 96 1011.7
20260510102023 47 0 0.0 0.0 0.00 0.36 0.00 96 1011.7
20260510101539 47 0 0.0 0.0 0.00 0.36 0.00 96 1011.5
20260510101020 47 0 0.0 0.0 0.00 0.36 0.00 96 1011.5
20260510100520 47 0 0.0 0.0 0.00 0.36 0.00 96 1011.5
20260510100032 47 0 0.0 0.0 0.00 0.36 0.00 96 1011.4
20260510095521 47 0 0.0 0.0 0.00 0.36 0.00 96 1011.2
20260510095020 47 0 0.0 0.0 0.00 0.36 0.00 96 1011.1
20260510094537 47 0 0.0 0.0 0.00 0.36 0.00 96 1011.0
20260510094020 47 0 0.0 0.0 0.00 0.36 0.00 96 1010.9
20260510093522 47 0 0.0 0.0 0.00 0.36 0.00 96 1010.7
20260510093042 47 0 0.0 0.0 0.00 0.36 0.00 96 1010.6
20260510092520 47 0 0.0 0.0 0.00 0.36 0.00 96 1010.8
20260510092022 47 0 0.0 0.0 0.00 0.36 0.00 96 1010.9
20260510091536 47 0 0.0 0.0 0.00 0.36 0.00 96 1011.0
20260510091019 47 0 0.0 0.0 0.00 0.36 0.00 96 1011.0
20260510090518 48 0 0.0 0.0 0.00 0.36 0.00 96 1011.0
20260510090036 48 0 0.0 0.0 0.00 0.36 0.00 96 1011.1
20260510085516 48 0 0.0 1.0 0.00 0.36 0.00 96 1011.0
20260510085020 48 0 0.0 1.0 0.00 0.36 0.00 96 1011.1
20260510084537 48 0 0.0 1.0 0.00 0.36 0.00 96 1010.9
20260510084020 48 308 0.0 1.0 0.00 0.36 0.00 96 1011.0
20260510083520 48 0 0.0 1.0 0.00 0.36 0.00 96 1011.0
20260510083038 48 309 0.0 1.0 0.00 0.36 0.00 96 1010.8
20260510082517 48 309 0.0 1.0 0.00 0.36 0.00 96 1010.6
20260510082016 48 0 0.0 1.0 0.00 0.36 0.00 96 1010.8
20260510081547 48 309 1.0 2.0 0.00 0.36 0.00 96 1011.0
20260510081020 48 308 0.0 2.0 0.00 0.36 0.00 96 1011.2
20260510080519 48 271 0.0 2.0 0.00 0.36 0.00 96 1011.3
20260510080031 48 299 0.0 1.0 0.00 0.36 0.00 96 1011.7
20260510075518 48 295 0.0 1.0 0.00 0.36 0.00 96 1011.9
20260510075016 48 0 0.0 1.0 0.00 0.36 0.00 96 1011.6
20260510074537 49 297 0.0 1.0 0.00 0.36 0.00 96 1011.4
20260510074021 49 0 0.0 1.0 0.00 0.36 0.00 96 1011.5
20260510073519 49 0 0.0 1.0 0.00 0.36 0.00 96 1011.7
20260510073050 48 333 0.0 1.0 0.00 0.36 0.00 96 1011.8
20260510072526 48 0 0.0 0.0 0.00 0.36 0.00 96 1011.7
20260510072017 49 0 0.0 0.0 0.00 0.36 0.00 96 1011.7
20260510071534 48 0 0.0 0.0 0.00 0.36 0.00 96 1011.7
20260510071017 48 0 0.0 0.0 0.00 0.36 0.00 96 1011.5
20260510070517 48 0 0.0 1.0 0.00 0.36 0.00 96 1011.6
20260510070037 49 0 0.0 1.0 0.00 0.36 0.00 96 1011.3
20260510065518 49 243 0.0 2.0 0.00 0.36 0.00 96 1011.3
20260510065021 49 200 0.0 2.0 0.00 0.36 0.00 96 1011.3
20260510064545 49 37 0.0 3.0 0.00 0.36 0.00 96 1011.3
20260510064016 49 274 0.0 3.0 0.00 0.36 0.00 96 1011.3
20260510063518 48 92 0.0 2.0 0.00 0.36 0.00 96 1011.2
20260510063041 48 226 0.0 3.0 0.00 0.36 0.00 96 1011.2
20260510062518 49 327 1.0 5.0 0.00 0.36 0.00 96 1011.1
20260510062022 49 211 1.0 5.0 0.00 0.36 0.00 96 1011.3
20260510061541 48 188 1.0 3.0 0.00 0.36 0.00 96 1011.4
20260510061018 47 0 0.0 0.0 0.00 0.36 0.00 96 1011.4
20260510060518 47 0 0.0 0.0 0.00 0.36 0.00 96 1011.4
20260510060043 47 0 0.0 0.0 0.00 0.36 0.00 96 1011.4
20260510055518 47 0 0.0 0.0 0.00 0.36 0.00 96 1011.3
20260510055020 47 0 0.0 0.0 0.00 0.36 0.00 96 1011.3
20260510054535 47 0 0.0 0.0 0.00 0.36 0.00 96 1011.4
20260510054021 47 0 0.0 0.0 0.00 0.36 0.00 96 1011.2
20260510053516 47 0 0.0 0.0 0.00 0.36 0.00 96 1011.4
20260510053041 47 0 0.0 0.0 0.00 0.36 0.00 96 1011.5
20260510052518 47 0 0.0 0.0 0.00 0.36 0.00 96 1011.3
20260510052017 47 0 0.0 0.0 0.00 0.36 0.00 96 1011.3
20260510051542 47 0 0.0 0.0 0.00 0.36 0.00 96 1011.4
20260510051021 47 0 0.0 0.0 0.00 0.36 0.00 96 1011.5
20260510050519 47 0 0.0 0.0 0.00 0.36 0.00 96 1011.5
20260510050038 47 0 0.0 0.0 0.00 0.36 0.00 96 1011.5
20260510045519 47 0 0.0 0.0 0.00 0.36 0.00 96 1011.7
20260510045020 47 0 0.0 0.0 0.00 0.36 0.00 96 1011.6
20260510044546 47 0 0.0 0.0 0.00 0.36 0.00 96 1011.6
20260510044018 47 0 0.0 0.0 0.00 0.36 0.00 96 1011.4
20260510043518 47 0 0.0 0.0 0.00 0.36 0.00 96 1011.5
20260510043037 47 0 0.0 0.0 0.00 0.36 0.00 96 1011.5
20260510042519 47 0 0.0 0.0 0.00 0.36 0.00 96 1011.5
20260510042018 47 0 0.0 0.0 0.00 0.36 0.00 96 1011.6
20260510041534 47 0 0.0 0.0 0.00 0.36 0.00 96 1011.6
20260510041019 47 0 0.0 0.0 0.00 0.36 0.00 96 1011.7
20260510040527 47 0 0.0 0.0 0.00 0.36 0.00 96 1011.6
20260510040043 47 0 0.0 0.0 0.00 0.36 0.00 96 1011.7
20260510035519 47 0 0.0 0.0 0.00 0.36 0.36 96 1011.7
20260510035021 47 0 0.0 0.0 0.00 0.36 0.36 96 1011.6
20260510034537 47 0 0.0 0.0 0.00 0.36 0.36 96 1011.6
20260510034018 47 0 0.0 0.0 0.00 0.36 0.36 96 1011.7
20260510033517 47 0 0.0 0.0 0.00 0.36 0.36 95 1011.7
20260510033054 47 0 0.0 0.0 0.00 0.36 0.36 96 1011.8
20260510032518 47 0 0.0 0.0 0.00 0.36 0.36 95 1011.8
20260510032023 47 0 0.0 0.0 0.00 0.36 0.36 96 1011.8
20260510031539 47 0 0.0 0.0 0.00 0.36 0.36 95 1011.9
20260510031021 47 0 0.0 0.0 0.00 0.36 0.36 96 1011.9
20260510030529 47 0 0.0 0.0 0.00 0.36 0.36 95 1011.9
20260510030044 47 0 0.0 0.0 0.00 0.36 0.36 96 1011.9
20260510025518 47 0 0.0 0.0 0.00 0.36 0.36 96 1011.9
20260510025023 47 0 0.0 0.0 0.00 0.36 0.36 95 1011.8
20260510024535 47 0 0.0 0.0 0.00 0.36 0.36 96 1011.9
20260510024018 47 0 0.0 0.0 0.00 0.36 0.36 95 1011.8
20260510023519 47 0 0.0 0.0 0.00 0.36 0.36 95 1012.0
20260510023037 47 0 0.0 0.0 0.00 0.36 0.36 95 1011.8
20260510022533 47 0 0.0 0.0 0.00 0.36 0.36 95 1011.8
20260510022020 47 0 0.0 0.0 0.00 0.36 0.36 95 1011.9
20260510021535 47 0 0.0 0.0 0.00 0.36 0.36 95 1011.9
20260510021016 47 0 0.0 0.0 0.00 0.36 0.36 95 1011.8
20260510020519 47 0 0.0 0.0 0.00 0.36 0.36 95 1012.0
20260510020037 47 0 0.0 0.0 0.00 0.36 0.36 95 1012.0
20260510015517 47 0 0.0 0.0 0.00 0.36 0.36 95 1011.9
20260510015026 47 0 0.0 0.0 0.00 0.36 0.36 95 1012.0
20260510014539 47 0 0.0 0.0 0.00 0.36 0.36 95 1012.1
20260510014022 47 0 0.0 0.0 0.00 0.36 0.36 95 1012.0
20260510013517 47 0 0.0 0.0 0.00 0.36 0.36 95 1012.1
20260510013037 47 0 0.0 0.0 0.00 0.36 0.36 95 1012.0
20260510012519 47 0 0.0 0.0 0.00 0.36 0.36 95 1011.9
20260510012020 47 0 0.0 0.0 0.00 0.36 0.36 95 1011.8
20260510011538 47 0 0.0 0.0 0.00 0.36 0.36 95 1011.9
20260510011019 47 0 0.0 0.0 0.00 0.36 0.36 95 1012.0
20260510010520 47 0 0.0 0.0 0.00 0.36 0.36 95 1012.0
20260510010037 48 0 0.0 0.0 0.00 0.36 0.36 95 1011.9
20260510005520 48 0 0.0 0.0 0.00 0.36 0.36 95 1011.9
20260510005019 48 0 0.0 0.0 0.00 0.36 0.36 95 1011.9
20260510004541 48 0 0.0 0.0 0.00 0.36 0.36 95 1011.8
20260510004019 48 0 0.0 0.0 0.00 0.36 0.36 95 1011.7
20260510003519 48 0 0.0 0.0 0.00 0.36 0.36 95 1011.8
20260510003045 48 0 0.0 0.0 0.00 0.36 0.36 95 1011.6
20260510002517 48 0 0.0 0.0 0.00 0.36 0.36 95 1011.5
20260510002022 48 0 0.0 0.0 0.00 0.36 0.36 95 1011.4
20260510001537 48 0 0.0 0.0 0.00 0.36 0.36 95 1011.5
20260510001017 48 0 0.0 0.0 0.00 0.36 0.36 95 1011.5
20260510000520 49 0 0.0 0.0 0.00 0.36 0.36 95 1011.5
20260510000040 49 0 0.0 0.0 0.00 0.36 0.36 95 1011.3
20260509235520 49 0 0.0 0.0 0.00 0.36 0.36 95 1011.2
20260509235024 49 0 0.0 0.0 0.00 0.36 0.36 95 1011.2
20260509234542 49 0 0.0 0.0 0.00 0.36 0.36 95 1011.0
20260509234020 49 0 0.0 0.0 0.00 0.36 0.36 95 1010.9
20260509233520 49 0 0.0 0.0 0.00 0.36 0.36 95 1010.8
20260509233041 49 0 0.0 0.0 0.00 0.36 0.36 95 1010.8
20260509232520 49 0 0.0 0.0 0.00 0.36 0.36 95 1010.9
20260509232017 49 0 0.0 0.0 0.00 0.36 0.36 95 1010.8
20260509231536 49 0 0.0 0.0 0.00 0.36 0.36 95 1010.9
20260509231022 49 0 0.0 0.0 0.00 0.36 0.36 95 1010.8
20260509230517 49 0 0.0 0.0 0.00 0.36 0.36 95 1010.8
20260509230040 49 0 0.0 0.0 0.00 0.36 0.36 95 1010.9
20260509225521 49 0 0.0 0.0 0.00 0.36 0.36 95 1010.8
20260509225018 49 0 0.0 0.0 0.00 0.36 0.36 95 1010.9
20260509224536 49 0 0.0 0.0 0.00 0.36 0.36 95 1010.9
20260509224019 49 0 0.0 0.0 0.00 0.36 0.36 95 1010.9